Truckee, CA

11:20 PM PDT on September 24, 2016 (GMT -0700)
Truckee-Tahoe

Weather History for KTRK - May, 2013

Change the Weather History Date:

Tuesday, May 14, 2013

  Actual Average Record
Temperature  
Mean Temperature 52 °F -  
Max Temperature 71 °F 64 °F 81 °F (1976)
Min Temperature 32 °F 32 °F 19 °F (1968)
Degree Days  
Heating Degree Days 14    
Growing Degree Days 2 (Base 50)    
Moisture  
Dew Point 37 °F    
Average Humidity 67    
Maximum Humidity 100    
Minimum Humidity 23    
Precipitation  
Precipitation 0.00 in - - ()
Sea Level Pressure  
Sea Level Pressure 30.18 in    
Wind  
Wind Speed 3 mph (SSW)    
Max Wind Speed 17 mph    
Max Gust Speed 23 mph    
Visibility 10 miles    
Events      
Averages and records for this station are not official NWS values.
T = Trace of Precipitation, MM = Missing Value Source: NWS Daily Summary

Daily Weather History Graph

Daily Weather History Graph

Search for Another Location

Airport or City:

Trip Planner

Search our weather history database for the weather conditions in past years. The results will help you decide how hot, cold, wet, or windy it might be!

Date:

Astronomy

May. 14, 2013 Rise Set
Actual Time 5:47 AM PDT 8:06 PM PDT
Civil Twilight 5:17 AM PDT 8:37 PM PDT
Nautical Twilight 4:40 AM PDT 9:14 PM PDT
Astronomical Twilight 3:59 AM PDT 9:55 PM PDT
Moon 9:31 AM PDT (5/14) 11:57 PM PDT (5/14)
Length of Visible Light 15h 19m
Length of Day
14h 19m
Waxing Crescent, 19% of the Moon is Illuminated
May 14
Waxing Crescent
May 17
First Quarter
May 24
Full
May 31
Last Quarter
Jun 8
New

Hourly Weather History & Observations

Time (PDT) Temp. Windchill Dew Point Humidity Pressure Visibility Wind Dir Wind Speed Gust Speed Precip Events Conditions
12:15 AM 44.6 °F 43.1 °F 35.6 °F 71% 30.23 in 10.0 mi SW 3.5 mph - N/A   Clear
12:35 AM 44.6 °F - 35.6 °F 71% 30.23 in 10.0 mi Calm Calm - N/A   Clear
12:55 AM 41.0 °F - 35.6 °F 81% 30.23 in 10.0 mi Calm Calm - N/A   Clear
1:15 AM 41.0 °F - 35.6 °F 81% 30.22 in 10.0 mi Calm Calm - N/A   Clear
1:35 AM 41.0 °F - 35.6 °F 81% 30.22 in 10.0 mi Calm Calm - N/A   Clear
1:55 AM 41.0 °F - 35.6 °F 81% 30.22 in 10.0 mi Calm Calm - N/A   Clear
2:15 AM 39.2 °F - 35.6 °F 87% 30.22 in 10.0 mi Calm Calm - N/A   Clear
2:35 AM 39.2 °F - 35.6 °F 87% 30.21 in 10.0 mi Calm Calm - N/A   Clear
2:55 AM 39.2 °F - 35.6 °F 87% 30.21 in 10.0 mi Calm Calm - N/A   Clear
3:15 AM 37.4 °F - 33.8 °F 87% 30.21 in 10.0 mi Calm Calm - N/A   Clear
3:35 AM 39.2 °F - 35.6 °F 87% 30.20 in 10.0 mi Calm Calm - N/A   Clear
3:55 AM 37.4 °F - 35.6 °F 93% 30.21 in 10.0 mi Calm Calm - N/A   Clear
4:15 AM 35.6 °F - 32.0 °F 87% 30.20 in 10.0 mi Calm Calm - N/A   Clear
4:35 AM 37.4 °F - 35.6 °F 93% 30.20 in 10.0 mi Calm Calm - N/A   Clear
4:55 AM 37.4 °F - 35.6 °F 93% 30.20 in 10.0 mi Calm Calm - N/A   Clear
5:15 AM 37.4 °F - 33.8 °F 87% 30.20 in 10.0 mi Calm Calm - N/A   Clear
5:35 AM 35.6 °F 31.7 °F 33.8 °F 93% 30.20 in 10.0 mi East 4.6 mph - N/A   Clear
5:55 AM 32.0 °F - 32.0 °F 100% 30.20 in 10.0 mi Calm Calm - N/A   Clear
6:15 AM 35.6 °F - 32.0 °F 87% 30.20 in 10.0 mi Calm Calm - N/A   Clear
6:35 AM 37.4 °F - 33.8 °F 87% 30.20 in 10.0 mi Calm Calm - N/A   Clear
6:45 AM 37.4 °F - 35.6 °F 93% 30.21 in 10.0 mi Calm Calm - N/A   Clear
7:50 AM 44.6 °F - 37.4 °F 76% 30.20 in 10.0 mi Calm Calm - N/A   Clear
8:45 AM 50.0 °F - 37.4 °F 62% 30.19 in 10.0 mi Calm Calm - N/A   Clear
11:45 AM 68.0 °F - 32.0 °F 26% 30.14 in 10.0 mi West 4.6 mph - N/A   Scattered Clouds
12:55 PM 69.8 °F - 32.0 °F 25% 30.12 in 10.0 mi Calm Calm - N/A   Mostly Cloudy
1:45 PM 71.6 °F - 32.0 °F 23% 30.11 in 10.0 mi West 11.5 mph 20.7 mph N/A   Mostly Cloudy
2:45 PM 68.0 °F - 37.4 °F 33% 30.11 in 10.0 mi SSE 8.1 mph - N/A   Mostly Cloudy
3:45 PM 66.2 °F - 37.4 °F 35% 30.11 in 10.0 mi SE 16.1 mph - N/A   Mostly Cloudy
4:45 PM 71.6 °F - 33.8 °F 25% 30.11 in 10.0 mi SW 13.8 mph 19.6 mph N/A   Mostly Cloudy
5:50 PM 68.0 °F - 35.6 °F 30% 30.12 in 10.0 mi WSW 16.1 mph 23.0 mph N/A   Scattered Clouds
5:55 PM 68.0 °F - 35.6 °F 30% 30.12 in 10.0 mi WSW 17.3 mph 21.9 mph N/A   Clear
6:15 PM 66.2 °F - 37.4 °F 35% 30.12 in 10.0 mi West 11.5 mph 21.9 mph N/A   Clear
6:35 PM 66.2 °F - 37.4 °F 35% 30.13 in 10.0 mi WSW 12.7 mph 18.4 mph N/A   Clear
6:55 PM 62.6 °F - 39.2 °F 42% 30.13 in 10.0 mi West 8.1 mph - N/A   Clear
7:15 PM 62.6 °F - 39.2 °F 42% 30.14 in 10.0 mi West 10.4 mph - N/A   Clear
7:35 PM 60.8 °F - 39.2 °F 45% 30.14 in 10.0 mi WSW 6.9 mph - N/A   Clear
7:55 PM 59.0 °F - 39.2 °F 48% 30.15 in 10.0 mi SW 8.1 mph - N/A   Clear
8:15 PM 57.2 °F - 39.2 °F 51% 30.16 in 10.0 mi SW 5.8 mph - N/A   Clear
8:35 PM 57.2 °F - 39.2 °F 51% 30.16 in 10.0 mi WSW 3.5 mph - N/A   Clear
8:55 PM 53.6 °F - 41.0 °F 62% 30.16 in 10.0 mi South 4.6 mph - N/A   Clear
9:15 PM 50.0 °F - 41.0 °F 71% 30.17 in 10.0 mi SSE 5.8 mph - N/A   Clear
9:35 PM 50.0 °F - 41.0 °F 71% 30.17 in 10.0 mi SE 5.8 mph - N/A   Clear
9:55 PM 48.2 °F - 41.0 °F 76% 30.17 in 10.0 mi SSE 4.6 mph - N/A   Clear
10:15 PM 46.4 °F 44.3 °F 39.2 °F 76% 30.18 in 10.0 mi SE 4.6 mph - N/A   Clear
10:35 PM 48.2 °F - 41.0 °F 76% 30.18 in 10.0 mi SE 6.9 mph - N/A   Clear
10:55 PM 46.4 °F 44.3 °F 39.2 °F 76% 30.17 in 10.0 mi SSE 4.6 mph - N/A   Clear
11:15 PM 46.4 °F - 41.0 °F 81% 30.17 in 10.0 mi Calm Calm - N/A   Clear
11:35 PM 44.6 °F 43.1 °F 41.0 °F 87% 30.18 in 10.0 mi South 3.5 mph - N/A   Clear
11:55 PM 44.6 °F - 39.2 °F 81% 30.18 in 10.0 mi Calm Calm - N/A   Clear